Back to catalog

STARLINK-11574

AliveCommunicationsVLEO
NORAD 63010·PAYLOAD·🇺🇸 United States

Launched Feb 15, 2025 from Cape Canaveral Space Force Station

Loading…

Next Passes (next 24 hours)

TLE

FreshSource: CelesTrak SupGP

Epoch: Sep 14, 2026, 21:40 UTC

1 63010C 25032F   26257.90326389 -.00050946  00000+0 -39587-3 0  2571
2 63010  43.0001 134.9827 0001613 266.9660 337.6710 15.70853166    10

Track STARLINK-11574 in real time with AllMySat

Download on the App Store